Regional Weather Roundup
Issued by NWS Mobile, AL

Home | Current Version | Previous Version | Text Only | Print | Product List | Glossary On
Versions: 1 2 3 4 5 6 7 8 9 10 11 12 13 14 15 16 17 18 19 20 21 22 23 24 25 26 27
000
ASUS44 KMOB 241110
RWRMOB
REGIONAL WEATHER ROUNDUP
NATIONAL WEATHER SERVICE MOBILE AL
600 AM CDT FRI OCT 24 2014

NOTE: "FAIR" INDICATES FEW OR NO CLOUDS BELOW 12,000 FEET WITH NO
      SIGNIFICANT WEATHER AND/OR OBSTRUCTIONS TO VISIBILITY.

  * THESE STATIONS ARE PART OF THE UNIVERSITY OF SOUTH ALABAMA
    MESONET AND ARE NOT UNDER NWS OR FAA QUALITY CONTROL.

ALZ061>064-241200-
COASTAL ALABAMA

CITY           SKY/WX    TMP DP  RH WIND       PRES   REMARKS
MOBILE REG APT MOCLDY    51  48  89 N5        30.08S
BROOKLEY FIELD PTCLDY    53  49  86 N5        30.09R
USA CAMPUS*      N/A     50  48  93 CALM      30.10R
DOG RIVER*     NOT AVBL


CITY           SKY/WX    TMP DP  RH WIND       PRES   REMARKS
MOUNT VERNON*    N/A     43  41  93 CALM      30.09S
SARALAND*      NOT AVBL
BAY MINETTE*   NOT AVBL
LOXLEY*          N/A     50  48  93 NW5       30.08R
ROBERTSDALE*     N/A     52  48  87 N3        30.07R
FAIRHOPE*        N/A     52  48  87 VRB3      30.07R
ELBERTA*         N/A     52  46  82 N3        30.06R
FOLEY*           N/A     48  45  87 CALM      30.04R
GRAND BAY*       N/A     48  46  93 CALM      30.06S
DAUPHIN ISLND* NOT AVBL
BON SCOUR NWR* NOT AVBL
GULF SHORES    CLEAR     52  47  82 CALM      30.06S

$$

ALZ051>060-241200-
INTERIOR SOUTHWEST AND SOUTH CENTRAL ALABAMA

CITY           SKY/WX    TMP DP  RH WIND       PRES   REMARKS
GREENVILLE     CLEAR     49  45  86 N3        30.07R
EVERGREEN      CLEAR     50  46  86 NW5       30.08R
CASTLEBERRY*   NOT AVBL
ATMORE*          N/A     50  48  93 N7        30.09R
DIXIE*           N/A     48  48 100 CALM      30.04S
ANDALUSIA/OPP  CLEAR     53  46  77 CALM      30.06R
ANDALUSIA*       N/A     52  46  82 N5        30.05S
FLORALA APT    PTCLDY    52  46  80 NW3       30.08R
FLORALA*         N/A     48  45  87 CALM      30.04R

$$

FLZ001>006-241200-
WESTERN FLORIDA PANHANDLE

CITY           SKY/WX    TMP DP  RH WIND       PRES   REMARKS
PENSACOLA      CLEAR     54  47  77 N7        30.06R
NAS PENSACOLA  MOCLDY    52  46  80 N7        30.06R
MILTON         PTCLDY    50  45  83 N3        30.06S
WHTNG S FIELD  CLEAR     50  46  86 CALM      30.06R


CITY           SKY/WX    TMP DP  RH WIND       PRES   REMARKS
WALNUT HILL*   NOT AVBL
JAY*             N/A     50  46  87 CALM      30.07R
DUKE FIELD     PTCLDY    48  46  93 CALM      30.06R
CRESTVIEW      PTCLDY    48  46  93 CALM      30.08R
VALPARAISO     MOCLDY    54  46  73 N5        30.06R
DESTIN         PTCLDY    59  50  72 N7        30.05R

$$

MSZ076-079-241200-
INTERIOR SOUTHEAST MISSISSIPPI

CITY           SKY/WX    TMP DP  RH WIND       PRES   REMARKS
LEAKESVILLE*   NOT AVBL
AGRICOLA*      NOT AVBL

$$

MARINE OBSERVATIONS

STATION/POSITION TIME  TEMP    WIND        PRES    WAVE
                       AIR SEA DIR/SP/G            HT/PER
                 (UTC) (F)     (DEG/KT/KT) (MB)    (FT/S)
PASCAGOULA       1100   55     350/  7/  8 1018.1S
PETIT BOIS ISLND 1100   60      20/ 14/ 18 1018.3R
GRAND BAY        1000   53     350/  7     1018.0S
KATRINA CUT      1000   60      20/ 12     1018.3R
CEDAR POINT      1000   56     360/  8     1017.6F
E DAUPHIN ISLAND 0956   65      10/ 13/ 15 1018.0R
MIDDLE BAY LIGHT 1000   62      10/ 14     1017.3S
USCG MOBILE BAY  1100   55 74  360/  4/  6 1017.2R
STATE DOCKS      1100   56 74              1018.2S
MEAHER PARK      1000   56     330/  6     1019.0R
WEEKS BAY        1000   51                   N/A
FORT MORGAN      1100   63      40/ 14/ 16 1017.5R
12 S ORANGE BCH  1100   67 78   20/ 14/ 17 1017.1R   2/ 8
PENSACOLA BAY    1100   58 73  360/  5/  8 1017.9R
64 S DAUPHIN ISL 1041   71 78   10/ 10/ 14 1017.6R   3/ 6
67 S FORT MORGAN 1000   71                 1016.6

$$

SELECTED LOCATIONS ACROSS THE REGION

CITY           SKY/WX    TMP DP  RH WIND       PRES   REMARKS
NEW ORLEANS    PTCLDY    60  50  69 NE7       30.09R
GULFPORT       PTCLDY    52  47  83 CALM      30.08S
PASCAGOULA AP  PTCLDY    50  47  89 CALM      30.08R
PASCAGOULA*      N/A     54  46  76 VRB5      30.08R
HATTIESBURG    CLEAR     47  46  97 CALM      30.10S
LAUREL         CLEAR     45  39  81 CALM      30.11R
MERIDIAN       PTCLDY    46  45  96 CALM      30.10R
JACKSON        CLEAR     43  42  97 CALM      30.12S
MONTGOMERY     PTCLDY    45  43  93 CALM      30.08R
TROY           PTCLDY    44  43  96 CALM      30.08R
KINSTON*       NOT AVBL
GENEVA*          N/A     52  48  87 CALM      30.08R
ASHFORD*         N/A     52  46  82 N5        30.05S
DOTHAN         MOCLDY    51  47  86 CALM      30.08R
PANAMA CITY    PTCLDY    53  48  83 CALM      30.03R

$$




USA.gov is the U.S. government's official web portal to all federal, state and local government web resources and services.